| time (UTC) | temp F | wind direction | speed MPH | gust MPH | rain 1hr in | rain 24hr in | rain mn in | humidity % | barometer mb |
| 20260904174003 | 80 | 310 | 0.0 | 2.0 | 0.00 | 0.00 | 0.00 | 39 | 1023.5 |
| 20260904173502 | 81 | 284 | 1.0 | 3.0 | 0.00 | 0.00 | 0.00 | 38 | 1023.5 |
| 20260904173010 | 81 | 288 | 1.0 | 3.0 | 0.00 | 0.00 | 0.00 | 38 | 1023.4 |
| 20260904172503 | 81 | 285 | 1.0 | 2.0 | 0.00 | 0.00 | 0.00 | 37 | 1023.4 |
| 20260904172007 | 82 | 311 | 0.0 | 2.0 | 0.00 | 0.00 | 0.00 | 38 | 1023.2 |
| 20260904171519 | 82 | 327 | 0.0 | 2.0 | 0.00 | 0.00 | 0.00 | 37 | 1023.1 |
| 20260904171010 | 82 | 286 | 0.0 | 2.0 | 0.00 | 0.00 | 0.00 | 36 | 1023.1 |
| 20260904170510 | 82 | 275 | 0.0 | 3.0 | 0.00 | 0.00 | 0.00 | 41 | 1023.2 |
| 20260904170019 | 82 | 257 | 0.0 | 3.0 | 0.00 | 0.00 | 0.00 | 42 | 1023.2 |
| 20260904165514 | 83 | 283 | 0.0 | 3.0 | 0.00 | 0.00 | 0.00 | 42 | 1023.2 |
| 20260904165012 | 84 | 288 | 1.0 | 4.0 | 0.00 | 0.00 | 0.00 | 40 | 1023.2 |
| 20260904164521 | 84 | 195 | 0.0 | 4.0 | 0.00 | 0.00 | 0.00 | 39 | 1023.2 |
| 20260904164003 | 84 | 169 | 0.0 | 4.0 | 0.00 | 0.00 | 0.00 | 39 | 1023.1 |
| 20260904163504 | 84 | 113 | 0.0 | 4.0 | 0.00 | 0.00 | 0.00 | 39 | 1023.1 |
| 20260904163006 | 84 | 157 | 0.0 | 2.0 | 0.00 | 0.00 | 0.00 | 39 | 1023.1 |
| 20260904162503 | 84 | 275 | 0.0 | 4.0 | 0.00 | 0.00 | 0.00 | 39 | 1023.1 |
| 20260904162002 | 84 | 145 | 1.0 | 4.0 | 0.00 | 0.00 | 0.00 | 38 | 1023.1 |
| 20260904161514 | 84 | 120 | 0.0 | 4.0 | 0.00 | 0.00 | 0.00 | 38 | 1023.1 |
| 20260904161006 | 84 | 132 | 1.0 | 4.0 | 0.00 | 0.00 | 0.00 | 38 | 1023.1 |
| 20260904160509 | 84 | 351 | 1.0 | 4.0 | 0.00 | 0.00 | 0.00 | 37 | 1023.1 |
| 20260904160017 | 84 | 110 | 1.0 | 4.0 | 0.00 | 0.00 | 0.00 | 37 | 1023.1 |
| 20260904155509 | 84 | 152 | 0.0 | 5.0 | 0.00 | 0.00 | 0.00 | 37 | 1023.1 |
| 20260904155014 | 84 | 283 | 0.0 | 5.0 | 0.00 | 0.00 | 0.00 | 37 | 1023.1 |
| 20260904154533 | 84 | 298 | 0.0 | 8.0 | 0.00 | 0.00 | 0.00 | 40 | 1023.0 |
| 20260904154015 | 83 | 273 | 2.0 | 8.0 | 0.00 | 0.00 | 0.00 | 38 | 1023.1 |
| 20260904153513 | 83 | 244 | 3.0 | 8.0 | 0.00 | 0.00 | 0.00 | 36 | 1023.2 |
| 20260904153033 | 84 | 274 | 2.0 | 7.0 | 0.00 | 0.00 | 0.00 | 38 | 1023.0 |
| 20260904152512 | 84 | 248 | 2.0 | 7.0 | 0.00 | 0.00 | 0.00 | 40 | 1023.1 |
| 20260904152003 | 83 | 283 | 2.0 | 8.0 | 0.00 | 0.00 | 0.00 | 39 | 1023.1 |
| 20260904151510 | 83 | 266 | 4.0 | 8.0 | 0.00 | 0.00 | 0.00 | 35 | 1023.1 |
| 20260904151004 | 84 | 226 | 2.0 | 8.0 | 0.00 | 0.00 | 0.00 | 36 | 1023.1 |
| 20260904150507 | 84 | 283 | 1.0 | 8.0 | 0.00 | 0.00 | 0.00 | 37 | 1023.2 |
| 20260904150013 | 84 | 278 | 1.0 | 10.0 | 0.00 | 0.00 | 0.00 | 39 | 1023.2 |
| 20260904145508 | 84 | 333 | 3.0 | 10.0 | 0.00 | 0.00 | 0.00 | 37 | 1023.3 |
| 20260904145009 | 84 | 204 | 2.0 | 7.0 | 0.00 | 0.00 | 0.00 | 38 | 1023.4 |
| 20260904144520 | 84 | 278 | 3.0 | 7.0 | 0.00 | 0.00 | 0.00 | 37 | 1023.2 |
| 20260904144014 | 84 | 95 | 1.0 | 6.0 | 0.00 | 0.00 | 0.00 | 38 | 1023.3 |
| 20260904143510 | 83 | 202 | 2.0 | 8.0 | 0.00 | 0.00 | 0.00 | 38 | 1023.4 |
| 20260904143028 | 84 | 203 | 3.0 | 8.0 | 0.00 | 0.00 | 0.00 | 37 | 1023.2 |
| 20260904142514 | 84 | 158 | 1.0 | 7.0 | 0.00 | 0.00 | 0.00 | 36 | 1023.2 |
| 20260904142014 | 84 | 275 | 3.0 | 7.0 | 0.00 | 0.00 | 0.00 | 36 | 1023.3 |
| 20260904141529 | 84 | 234 | 2.0 | 6.0 | 0.00 | 0.00 | 0.00 | 36 | 1023.4 |
| 20260904141013 | 84 | 260 | 2.0 | 6.0 | 0.00 | 0.00 | 0.00 | 36 | 1023.4 |
| 20260904140515 | 85 | 281 | 3.0 | 6.0 | 0.00 | 0.00 | 0.00 | 37 | 1023.4 |
| 20260904140011 | 85 | 148 | 1.0 | 6.0 | 0.00 | 0.00 | 0.00 | 39 | 1023.4 |
| 20260904135507 | 85 | 291 | 2.0 | 6.0 | 0.00 | 0.00 | 0.00 | 38 | 1023.4 |
| 20260904135007 | 85 | 146 | 1.0 | 5.0 | 0.00 | 0.00 | 0.00 | 40 | 1023.4 |
| 20260904134514 | 85 | 219 | 0.0 | 6.0 | 0.00 | 0.00 | 0.00 | 38 | 1023.4 |
| 20260904134008 | 85 | 295 | 2.0 | 6.0 | 0.00 | 0.00 | 0.00 | 38 | 1023.5 |
| 20260904133510 | 85 | 132 | 1.0 | 3.0 | 0.00 | 0.00 | 0.00 | 40 | 1023.5 |
| 20260904133025 | 84 | 131 | 1.0 | 7.0 | 0.00 | 0.00 | 0.00 | 40 | 1023.5 |
| 20260904132512 | 84 | 150 | 1.0 | 7.0 | 0.00 | 0.00 | 0.00 | 40 | 1023.5 |
| 20260904132011 | 84 | 327 | 2.0 | 5.0 | 0.00 | 0.00 | 0.00 | 41 | 1023.6 |
| 20260904131523 | 84 | 293 | 1.0 | 5.0 | 0.00 | 0.00 | 0.00 | 41 | 1023.6 |
| 20260904131015 | 84 | 112 | 1.0 | 10.0 | 0.00 | 0.00 | 0.00 | 42 | 1023.6 |
| 20260904130515 | 84 | 29 | 1.0 | 10.0 | 0.00 | 0.00 | 0.00 | 43 | 1023.7 |
| 20260904130026 | 84 | 214 | 1.0 | 5.0 | 0.00 | 0.00 | 0.00 | 44 | 1023.7 |
| 20260904125516 | 84 | 268 | 2.0 | 6.0 | 0.00 | 0.00 | 0.00 | 42 | 1023.7 |
| 20260904125015 | 84 | 285 | 1.0 | 6.0 | 0.00 | 0.00 | 0.00 | 46 | 1023.6 |
| 20260904124527 | 83 | 166 | 2.0 | 6.0 | 0.00 | 0.00 | 0.00 | 43 | 1023.6 |
| 20260904124005 | 83 | 104 | 1.0 | 6.0 | 0.00 | 0.00 | 0.00 | 47 | 1023.6 |
| 20260904123508 | 83 | 281 | 1.0 | 6.0 | 0.00 | 0.00 | 0.00 | 45 | 1023.7 |
| 20260904123016 | 82 | 233 | 1.0 | 4.0 | 0.00 | 0.00 | 0.00 | 46 | 1023.8 |
| 20260904122510 | 83 | 264 | 2.0 | 4.0 | 0.00 | 0.00 | 0.00 | 45 | 1023.8 |
| 20260904122010 | 83 | 244 | 1.0 | 6.0 | 0.00 | 0.00 | 0.00 | 47 | 1023.9 |
| 20260904121523 | 82 | 285 | 1.0 | 6.0 | 0.00 | 0.00 | 0.00 | 47 | 1023.9 |
| 20260904121013 | 81 | 302 | 1.0 | 6.0 | 0.00 | 0.00 | 0.00 | 49 | 1023.9 |
| 20260904120513 | 81 | 216 | 2.0 | 7.0 | 0.00 | 0.00 | 0.00 | 50 | 1024.0 |
| 20260904120038 | 81 | 273 | 3.0 | 7.0 | 0.00 | 0.00 | 0.00 | 47 | 1024.0 |
| 20260904115515 | 81 | 286 | 2.0 | 6.0 | 0.00 | 0.00 | 0.00 | 50 | 1023.9 |
| 20260904115014 | 81 | 247 | 3.0 | 8.0 | 0.00 | 0.00 | 0.00 | 49 | 1024.0 |
| 20260904114529 | 81 | 256 | 2.0 | 9.0 | 0.00 | 0.00 | 0.00 | 49 | 1024.0 |
| 20260904114017 | 81 | 296 | 3.0 | 9.0 | 0.00 | 0.00 | 0.00 | 47 | 1024.0 |
| 20260904113519 | 81 | 308 | 5.0 | 9.0 | 0.00 | 0.00 | 0.00 | 48 | 1023.9 |
| 20260904113033 | 81 | 352 | 2.0 | 6.0 | 0.00 | 0.00 | 0.00 | 47 | 1023.9 |
| 20260904112515 | 81 | 300 | 4.0 | 7.0 | 0.00 | 0.00 | 0.00 | 46 | 1023.9 |
| 20260904112009 | 81 | 254 | 2.0 | 7.0 | 0.00 | 0.00 | 0.00 | 44 | 1023.9 |
| 20260904111519 | 81 | 290 | 4.0 | 7.0 | 0.00 | 0.00 | 0.00 | 42 | 1023.9 |
| 20260904111010 | 82 | 275 | 4.0 | 7.0 | 0.00 | 0.00 | 0.00 | 42 | 1023.8 |
| 20260904110510 | 83 | 93 | 1.0 | 5.0 | 0.00 | 0.00 | 0.00 | 40 | 1023.7 |
| 20260904110024 | 82 | 108 | 1.0 | 5.0 | 0.00 | 0.00 | 0.00 | 42 | 1023.7 |
| 20260904105514 | 81 | 174 | 0.0 | 5.0 | 0.00 | 0.00 | 0.00 | 42 | 1023.7 |
| 20260904105016 | 82 | 252 | 0.0 | 5.0 | 0.00 | 0.00 | 0.00 | 41 | 1023.7 |
| 20260904104547 | 81 | 290 | 2.0 | 5.0 | 0.00 | 0.00 | 0.00 | 44 | 1023.8 |
| 20260904104014 | 81 | 292 | 1.0 | 3.0 | 0.00 | 0.00 | 0.00 | 46 | 1023.7 |
| 20260904103517 | 81 | 30 | 1.0 | 3.0 | 0.00 | 0.00 | 0.00 | 47 | 1023.8 |
| 20260904103031 | 80 | 110 | 0.0 | 3.0 | 0.00 | 0.00 | 0.00 | 47 | 1023.8 |
| 20260904102518 | 80 | 73 | 1.0 | 3.0 | 0.00 | 0.00 | 0.00 | 50 | 1023.8 |
| 20260904102020 | 80 | 98 | 1.0 | 3.0 | 0.00 | 0.00 | 0.00 | 49 | 1023.9 |
| 20260904101538 | 80 | 66 | 0.0 | 4.0 | 0.00 | 0.00 | 0.00 | 48 | 1023.9 |
| 20260904101009 | 80 | 52 | 1.0 | 4.0 | 0.00 | 0.00 | 0.00 | 47 | 1024.0 |
| 20260904100509 | 80 | 81 | 1.0 | 3.0 | 0.00 | 0.00 | 0.00 | 47 | 1024.1 |
| 20260904100018 | 81 | 34 | 0.0 | 3.0 | 0.00 | 0.00 | 0.00 | 48 | 1024.1 |
| 20260904095512 | 81 | 65 | 1.0 | 3.0 | 0.00 | 0.00 | 0.00 | 40 | 1024.1 |
| 20260904095012 | 81 | 134 | 1.0 | 3.0 | 0.00 | 0.00 | 0.00 | 41 | 1024.1 |
| 20260904094503 | 81 | 203 | 0.0 | 3.0 | 0.00 | 0.00 | 0.00 | 43 | 1024.2 |
| 20260904094002 | 80 | 357 | 1.0 | 4.0 | 0.00 | 0.00 | 0.00 | 47 | 1024.4 |
| 20260904093504 | 80 | 122 | 1.0 | 4.0 | 0.00 | 0.00 | 0.00 | 46 | 1024.4 |
| 20260904093007 | 80 | 124 | 1.0 | 4.0 | 0.00 | 0.00 | 0.00 | 48 | 1024.4 |
| 20260904092504 | 79 | 148 | 1.0 | 4.0 | 0.00 | 0.00 | 0.00 | 47 | 1024.4 |
| 20260904092005 | 79 | 160 | 1.0 | 4.0 | 0.00 | 0.00 | 0.00 | 47 | 1024.4 |
| 20260904091508 | 79 | 137 | 3.0 | 4.0 | 0.00 | 0.00 | 0.00 | 48 | 1024.4 |
| 20260904091008 | 78 | 104 | 1.0 | 4.0 | 0.00 | 0.00 | 0.00 | 49 | 1024.4 |
| 20260904090507 | 78 | 104 | 2.0 | 4.0 | 0.00 | 0.00 | 0.00 | 47 | 1024.3 |
| 20260904090018 | 79 | 66 | 1.0 | 3.0 | 0.00 | 0.00 | 0.00 | 57 | 1024.3 |
| 20260904085509 | 78 | 96 | 0.0 | 4.0 | 0.00 | 0.00 | 0.00 | 57 | 1024.3 |
| 20260904085013 | 78 | 78 | 2.0 | 4.0 | 0.00 | 0.00 | 0.00 | 54 | 1024.2 |
| 20260904084521 | 77 | 268 | 0.0 | 2.0 | 0.00 | 0.00 | 0.00 | 48 | 1024.2 |
| 20260904084012 | 76 | 103 | 0.0 | 2.0 | 0.00 | 0.00 | 0.00 | 49 | 1024.2 |
| 20260904083514 | 76 | 231 | 1.0 | 3.0 | 0.00 | 0.00 | 0.00 | 50 | 1024.1 |
| 20260904083027 | 76 | 300 | 1.0 | 3.0 | 0.00 | 0.00 | 0.00 | 48 | 1024.2 |
| 20260904082503 | 76 | 316 | 1.0 | 3.0 | 0.00 | 0.00 | 0.00 | 49 | 1024.2 |
| 20260904082004 | 76 | 300 | 1.0 | 3.0 | 0.00 | 0.00 | 0.00 | 50 | 1024.2 |
| 20260904081506 | 76 | 281 | 1.0 | 2.0 | 0.00 | 0.00 | 0.00 | 49 | 1024.1 |
| 20260904081004 | 77 | 262 | 0.0 | 2.0 | 0.00 | 0.00 | 0.00 | 49 | 1024.1 |
| 20260904080505 | 77 | 118 | 0.0 | 2.0 | 0.00 | 0.00 | 0.00 | 50 | 1024.0 |
| 20260904080011 | 78 | 222 | 0.0 | 2.0 | 0.00 | 0.00 | 0.00 | 50 | 1024.0 |
| 20260904075506 | 77 | 217 | 0.0 | 2.0 | 0.00 | 0.00 | 0.00 | 51 | 1024.1 |
| 20260904075009 | 76 | 148 | 1.0 | 3.0 | 0.00 | 0.00 | 0.00 | 53 | 1024.0 |
| 20260904074514 | 75 | 74 | 1.0 | 3.0 | 0.00 | 0.00 | 0.00 | 54 | 1024.0 |
| 20260904074013 | 75 | 107 | 1.0 | 3.0 | 0.00 | 0.00 | 0.00 | 55 | 1024.0 |
| 20260904073513 | 75 | 122 | 1.0 | 3.0 | 0.00 | 0.00 | 0.00 | 56 | 1023.9 |
| 20260904073031 | 75 | 96 | 1.0 | 2.0 | 0.00 | 0.00 | 0.00 | 57 | 1023.9 |
| 20260904072513 | 75 | 103 | 0.0 | 2.0 | 0.00 | 0.00 | 0.00 | 58 | 1023.9 |
| 20260904072015 | 75 | 91 | 1.0 | 2.0 | 0.00 | 0.00 | 0.00 | 56 | 1023.9 |
| 20260904071528 | 75 | 128 | 1.0 | 2.0 | 0.00 | 0.00 | 0.00 | 55 | 1023.8 |
| 20260904071020 | 75 | 121 | 1.0 | 2.0 | 0.00 | 0.00 | 0.00 | 56 | 1023.8 |
| 20260904070503 | 75 | 117 | 1.0 | 2.0 | 0.00 | 0.00 | 0.00 | 56 | 1023.7 |
| 20260904070018 | 77 | 113 | 1.0 | 2.0 | 0.00 | 0.00 | 0.00 | 52 | 1023.7 |
| 20260904065513 | 77 | 130 | 0.0 | 1.0 | 0.00 | 0.00 | 0.00 | 49 | 1023.7 |
| 20260904065007 | 77 | 141 | 0.0 | 1.0 | 0.00 | 0.00 | 0.00 | 49 | 1023.8 |
| 20260904064513 | 77 | 145 | 0.0 | 1.0 | 0.00 | 0.00 | 0.00 | 51 | 1023.8 |
| 20260904064008 | 76 | 150 | 0.0 | 0.0 | 0.00 | 0.00 | 0.00 | 51 | 1023.8 |
| 20260904063510 | 76 | 150 | 0.0 | 0.0 | 0.00 | 0.00 | 0.00 | 51 | 1023.8 |
| 20260904063018 | 76 | 151 | 0.0 | 0.0 | 0.00 | 0.00 | 0.00 | 50 | 1023.7 |
| 20260904062509 | 76 | 151 | 0.0 | 0.0 | 0.00 | 0.00 | 0.00 | 51 | 1023.7 |
| 20260904062013 | 75 | 151 | 0.0 | 0.0 | 0.00 | 0.00 | 0.00 | 52 | 1023.7 |
| 20260904061529 | 74 | 151 | 0.0 | 0.0 | 0.00 | 0.00 | 0.00 | 53 | 1023.7 |
| 20260904061014 | 74 | 151 | 0.0 | 0.0 | 0.00 | 0.00 | 0.00 | 54 | 1023.7 |
| 20260904060520 | 73 | 151 | 0.0 | 0.0 | 0.00 | 0.00 | 0.00 | 52 | 1023.7 |
| 20260904060048 | 73 | 151 | 0.0 | 0.0 | 0.00 | 0.00 | 0.00 | 51 | 1023.7 |
| 20260904055515 | 72 | 151 | 0.0 | 0.0 | 0.00 | 0.00 | 0.00 | 54 | 1023.6 |
| 20260904055003 | 71 | 151 | 0.0 | 0.0 | 0.00 | 0.00 | 0.00 | 56 | 1023.7 |
| 20260904054509 | 70 | 151 | 0.0 | 0.0 | 0.00 | 0.00 | 0.00 | 56 | 1023.6 |
| 20260904054004 | 69 | 146 | 0.0 | 0.0 | 0.00 | 0.00 | 0.00 | 57 | 1023.6 |
| 20260904053509 | 68 | 146 | 0.0 | 1.0 | 0.00 | 0.00 | 0.00 | 59 | 1023.6 |
| 20260904053012 | 67 | 146 | 0.0 | 1.0 | 0.00 | 0.00 | 0.00 | 60 | 1023.7 |
| 20260904052512 | 67 | 112 | 0.0 | 1.0 | 0.00 | 0.00 | 0.00 | 60 | 1023.7 |
| 20260904052012 | 66 | 155 | 0.0 | 1.0 | 0.00 | 0.00 | 0.00 | 60 | 1023.7 |
| 20260904051518 | 66 | 138 | 0.0 | 1.0 | 0.00 | 0.00 | 0.00 | 60 | 1023.6 |
| 20260904051015 | 66 | 176 | 0.0 | 1.0 | 0.00 | 0.00 | 0.00 | 60 | 1023.7 |
| 20260904050512 | 66 | 139 | 0.0 | 1.0 | 0.00 | 0.00 | 0.00 | 60 | 1023.6 |
| 20260904050032 | 66 | 130 | 0.0 | 1.0 | 0.00 | 0.00 | 0.00 | 60 | 1023.7 |
| 20260904045513 | 66 | 144 | 0.0 | 1.0 | 0.00 | 0.00 | 0.00 | 60 | 1023.6 |
| 20260904045014 | 67 | 133 | 0.0 | 1.0 | 0.00 | 0.00 | 0.00 | 59 | 1023.6 |
| 20260904044529 | 67 | 141 | 0.0 | 1.0 | 0.00 | 0.00 | 0.00 | 59 | 1023.6 |
| 20260904044017 | 67 | 149 | 0.0 | 1.0 | 0.00 | 0.00 | 0.00 | 59 | 1023.6 |
| 20260904043516 | 67 | 129 | 0.0 | 1.0 | 0.00 | 0.00 | 0.00 | 59 | 1023.6 |
| 20260904043010 | 67 | 142 | 0.0 | 1.0 | 0.00 | 0.00 | 0.00 | 59 | 1023.6 |
| 20260904042509 | 67 | 112 | 0.0 | 1.0 | 0.00 | 0.00 | 0.00 | 59 | 1023.5 |
| 20260904042011 | 67 | 196 | 0.0 | 1.0 | 0.00 | 0.00 | 0.00 | 59 | 1023.6 |
| 20260904041516 | 67 | 213 | 0.0 | 1.0 | 0.00 | 0.00 | 0.00 | 60 | 1023.6 |
| 20260904041011 | 66 | 151 | 0.0 | 1.0 | 0.00 | 0.00 | 0.00 | 60 | 1023.6 |
| 20260904040510 | 66 | 186 | 0.0 | 1.0 | 0.00 | 0.00 | 0.00 | 60 | 1023.6 |
| 20260904040024 | 66 | 139 | 0.0 | 1.0 | 0.00 | 0.00 | 0.00 | 60 | 1023.6 |
| 20260904035512 | 65 | 139 | 0.0 | 0.0 | 0.00 | 0.00 | 0.00 | 60 | 1023.7 |
| 20260904035020 | 65 | 139 | 0.0 | 0.0 | 0.00 | 0.00 | 0.00 | 60 | 1023.7 |
| 20260904034526 | 66 | 130 | 0.0 | 0.0 | 0.00 | 0.00 | 0.00 | 60 | 1023.7 |
| 20260904034014 | 66 | 130 | 0.0 | 1.0 | 0.00 | 0.00 | 0.00 | 60 | 1023.7 |
| 20260904033516 | 66 | 130 | 0.0 | 1.0 | 0.00 | 0.00 | 0.00 | 60 | 1023.8 |
| 20260904033032 | 66 | 131 | 0.0 | 1.0 | 0.00 | 0.00 | 0.00 | 60 | 1023.8 |
| 20260904032518 | 66 | 129 | 0.0 | 1.0 | 0.00 | 0.00 | 0.00 | 59 | 1023.8 |
| 20260904032017 | 66 | 129 | 0.0 | 1.0 | 0.00 | 0.00 | 0.00 | 59 | 1023.9 |
| 20260904031533 | 66 | 129 | 0.0 | 1.0 | 0.00 | 0.00 | 0.00 | 59 | 1023.9 |
| 20260904031007 | 66 | 129 | 0.0 | 0.0 | 0.00 | 0.00 | 0.00 | 58 | 1023.9 |
| 20260904030512 | 67 | 129 | 0.0 | 0.0 | 0.00 | 0.00 | 0.00 | 57 | 1024.0 |
| 20260904030017 | 67 | 129 | 0.0 | 1.0 | 0.00 | 0.00 | 0.00 | 57 | 1024.1 |
| 20260904025513 | 67 | 129 | 0.0 | 1.0 | 0.00 | 0.00 | 0.00 | 57 | 1024.1 |
| 20260904025012 | 67 | 129 | 0.0 | 1.0 | 0.00 | 0.00 | 0.00 | 58 | 1024.1 |
| 20260904024531 | 66 | 108 | 0.0 | 1.0 | 0.00 | 0.00 | 0.00 | 59 | 1024.1 |
| 20260904024015 | 66 | 108 | 0.0 | 1.0 | 0.00 | 0.00 | 0.00 | 58 | 1024.2 |
| 20260904023515 | 66 | 108 | 0.0 | 1.0 | 0.00 | 0.00 | 0.00 | 58 | 1024.2 |
| 20260904023027 | 66 | 108 | 0.0 | 1.0 | 0.00 | 0.00 | 0.00 | 58 | 1024.3 |
| 20260904022516 | 67 | 108 | 0.0 | 1.0 | 0.00 | 0.00 | 0.00 | 58 | 1024.3 |
| 20260904022015 | 67 | 108 | 0.0 | 1.0 | 0.00 | 0.00 | 0.00 | 57 | 1024.3 |
| 20260904021534 | 67 | 108 | 0.0 | 1.0 | 0.00 | 0.00 | 0.00 | 57 | 1024.4 |
| 20260904021016 | 67 | 110 | 0.0 | 1.0 | 0.00 | 0.00 | 0.00 | 58 | 1024.4 |
| 20260904020518 | 66 | 110 | 0.0 | 0.0 | 0.00 | 0.00 | 0.00 | 59 | 1024.5 |
| 20260904020038 | 66 | 110 | 0.0 | 1.0 | 0.00 | 0.00 | 0.00 | 59 | 1024.5 |
| 20260904015515 | 67 | 110 | 0.0 | 1.0 | 0.00 | 0.00 | 0.00 | 59 | 1024.5 |
| 20260904015011 | 67 | 110 | 0.0 | 0.0 | 0.00 | 0.00 | 0.00 | 58 | 1024.6 |
| 20260904014518 | 67 | 110 | 0.0 | 1.0 | 0.00 | 0.00 | 0.00 | 58 | 1024.6 |
| 20260904014013 | 67 | 110 | 0.0 | 1.0 | 0.00 | 0.00 | 0.00 | 58 | 1024.6 |
| 20260904013513 | 67 | 108 | 0.0 | 1.0 | 0.00 | 0.00 | 0.00 | 58 | 1024.6 |
| 20260904013025 | 67 | 93 | 0.0 | 1.0 | 0.00 | 0.00 | 0.00 | 59 | 1024.7 |
| 20260904012516 | 67 | 95 | 0.0 | 1.0 | 0.00 | 0.00 | 0.00 | 59 | 1024.7 |
| 20260904012015 | 67 | 96 | 1.0 | 1.0 | 0.00 | 0.00 | 0.00 | 59 | 1024.7 |
| 20260904011535 | 67 | 127 | 0.0 | 1.0 | 0.00 | 0.00 | 0.00 | 59 | 1024.8 |
| 20260904011018 | 67 | 127 | 0.0 | 1.0 | 0.00 | 0.00 | 0.00 | 59 | 1024.9 |
| 20260904010519 | 66 | 115 | 0.0 | 2.0 | 0.00 | 0.00 | 0.00 | 60 | 1024.9 |
| 20260904010031 | 66 | 84 | 1.0 | 2.0 | 0.00 | 0.00 | 0.00 | 61 | 1024.9 |
| 20260904005518 | 66 | 131 | 0.0 | 1.0 | 0.00 | 0.00 | 0.00 | 61 | 1025.0 |
| 20260904005015 | 66 | 106 | 0.0 | 1.0 | 0.00 | 0.00 | 0.00 | 62 | 1025.0 |
| 20260904004514 | 66 | 106 | 0.0 | 1.0 | 0.00 | 0.00 | 0.00 | 61 | 1025.0 |
| 20260904004010 | 66 | 106 | 0.0 | 1.0 | 0.00 | 0.00 | 0.00 | 61 | 1025.1 |
| 20260904003517 | 66 | 106 | 0.0 | 1.0 | 0.00 | 0.00 | 0.00 | 62 | 1025.1 |
| 20260904003023 | 66 | 122 | 0.0 | 0.0 | 0.00 | 0.00 | 0.00 | 61 | 1025.2 |
| 20260904002516 | 67 | 122 | 0.0 | 1.0 | 0.00 | 0.00 | 0.00 | 61 | 1025.3 |
| 20260904002012 | 67 | 122 | 0.0 | 1.0 | 0.00 | 0.00 | 0.00 | 61 | 1025.3 |
| 20260904001503 | 66 | 122 | 0.0 | 1.0 | 0.00 | 0.00 | 0.00 | 62 | 1025.3 |
| 20260904001004 | 66 | 117 | 0.0 | 1.0 | 0.00 | 0.00 | 0.00 | 63 | 1025.4 |
| 20260904000504 | 67 | 119 | 0.0 | 1.0 | 0.00 | 0.00 | 0.00 | 62 | 1025.5 |
| 20260904000010 | 67 | 119 | 0.0 | 2.0 | 0.00 | 0.00 | 0.00 | 62 | 1025.4 |
| 20260903235505 | 67 | 120 | 0.0 | 4.0 | 0.00 | 0.00 | 0.00 | 62 | 1025.6 |
| 20260903235007 | 68 | 113 | 1.0 | 5.0 | 0.00 | 0.00 | 0.00 | 61 | 1025.6 |
| 20260903234513 | 68 | 90 | 2.0 | 5.0 | 0.00 | 0.00 | 0.00 | 61 | 1025.7 |
| 20260903234008 | 68 | 91 | 1.0 | 6.0 | 0.00 | 0.00 | 0.00 | 60 | 1025.7 |
| 20260903233509 | 68 | 100 | 3.0 | 6.0 | 0.00 | 0.00 | 0.00 | 60 | 1025.7 |
| 20260903233015 | 68 | 93 | 2.0 | 4.0 | 0.00 | 0.00 | 0.00 | 61 | 1025.8 |
| 20260903232510 | 68 | 110 | 2.0 | 4.0 | 0.00 | 0.00 | 0.00 | 61 | 1025.8 |
| 20260903232014 | 68 | 104 | 0.0 | 2.0 | 0.00 | 0.00 | 0.00 | 61 | 1025.8 |
| 20260903231523 | 68 | 94 | 0.0 | 2.0 | 0.00 | 0.00 | 0.00 | 61 | 1025.9 |
| 20260903231011 | 68 | 108 | 1.0 | 2.0 | 0.00 | 0.00 | 0.00 | 61 | 1025.9 |
| 20260903230515 | 68 | 108 | 0.0 | 3.0 | 0.00 | 0.00 | 0.00 | 61 | 1025.9 |
| 20260903230028 | 67 | 77 | 0.0 | 3.0 | 0.00 | 0.00 | 0.00 | 62 | 1025.9 |
| 20260903225505 | 67 | 101 | 1.0 | 2.0 | 0.00 | 0.00 | 0.00 | 63 | 1025.9 |
| 20260903225002 | 67 | 91 | 0.0 | 1.0 | 0.00 | 0.00 | 0.00 | 62 | 1026.0 |
| 20260903224509 | 67 | 95 | 0.0 | 1.0 | 0.00 | 0.00 | 0.00 | 61 | 1026.0 |
| 20260903224006 | 67 | 122 | 0.0 | 1.0 | 0.00 | 0.00 | 0.00 | 61 | 1026.0 |
| 20260903223508 | 67 | 116 | 0.0 | 1.0 | 0.00 | 0.00 | 0.00 | 60 | 1026.0 |
| 20260903223023 | 68 | 134 | 0.0 | 1.0 | 0.00 | 0.00 | 0.00 | 60 | 1026.1 |
| 20260903222509 | 68 | 100 | 0.0 | 2.0 | 0.00 | 0.00 | 0.00 | 59 | 1026.1 |
| 20260903222013 | 68 | 95 | 0.0 | 2.0 | 0.00 | 0.00 | 0.00 | 59 | 1026.2 |
| 20260903221520 | 68 | 95 | 1.0 | 2.0 | 0.00 | 0.00 | 0.00 | 60 | 1026.2 |
| 20260903221013 | 68 | 115 | 0.0 | 2.0 | 0.00 | 0.00 | 0.00 | 60 | 1026.2 |
| 20260903220513 | 68 | 131 | 1.0 | 2.0 | 0.00 | 0.00 | 0.00 | 60 | 1026.2 |
| 20260903220026 | 68 | 197 | 0.0 | 2.0 | 0.00 | 0.00 | 0.00 | 59 | 1026.2 |
| 20260903215515 | 68 | 91 | 1.0 | 2.0 | 0.00 | 0.00 | 0.00 | 59 | 1026.3 |
| 20260903215015 | 68 | 113 | 0.0 | 3.0 | 0.00 | 0.00 | 0.00 | 59 | 1026.2 |
| 20260903214531 | 68 | 131 | 1.0 | 3.0 | 0.00 | 0.00 | 0.00 | 59 | 1026.3 |
| 20260903214014 | 68 | 106 | 0.0 | 1.0 | 0.00 | 0.00 | 0.00 | 59 | 1026.3 |
| 20260903213503 | 69 | 108 | 0.0 | 2.0 | 0.00 | 0.00 | 0.00 | 59 | 1026.3 |
| 20260903213009 | 69 | 130 | 0.0 | 2.0 | 0.00 | 0.00 | 0.00 | 58 | 1026.3 |
| 20260903212506 | 69 | 115 | 1.0 | 2.0 | 0.00 | 0.00 | 0.00 | 59 | 1026.4 |
| 20260903212006 | 68 | 110 | 0.0 | 2.0 | 0.00 | 0.00 | 0.00 | 59 | 1026.3 |
| 20260903211513 | 68 | 68 | 0.0 | 2.0 | 0.00 | 0.00 | 0.00 | 59 | 1026.4 |
| 20260903211010 | 69 | 88 | 1.0 | 2.0 | 0.00 | 0.00 | 0.00 | 58 | 1026.4 |
| 20260903210510 | 69 | 92 | 0.0 | 1.0 | 0.00 | 0.00 | 0.00 | 58 | 1026.5 |
| 20260903210020 | 69 | 81 | 0.0 | 2.0 | 0.00 | 0.00 | 0.00 | 58 | 1026.5 |
| 20260903205511 | 69 | 96 | 0.0 | 2.0 | 0.00 | 0.00 | 0.00 | 58 | 1026.5 |
| 20260903205011 | 69 | 99 | 0.0 | 1.0 | 0.00 | 0.00 | 0.00 | 58 | 1026.5 |
| 20260903204526 | 69 | 109 | 0.0 | 1.0 | 0.00 | 0.00 | 0.00 | 58 | 1026.5 |
| 20260903204017 | 69 | 109 | 0.0 | 1.0 | 0.00 | 0.00 | 0.00 | 58 | 1026.5 |
| 20260903203514 | 69 | 115 | 0.0 | 1.0 | 0.00 | 0.00 | 0.00 | 58 | 1026.5 |
| 20260903203035 | 69 | 111 | 0.0 | 1.0 | 0.00 | 0.00 | 0.00 | 58 | 1026.5 |
| 20260903202519 | 69 | 115 | 0.0 | 1.0 | 0.00 | 0.00 | 0.00 | 58 | 1026.5 |
| 20260903202015 | 69 | 59 | 0.0 | 1.0 | 0.00 | 0.00 | 0.00 | 58 | 1026.5 |
| 20260903201510 | 69 | 59 | 0.0 | 1.0 | 0.00 | 0.00 | 0.00 | 58 | 1026.6 |
| 20260903201010 | 69 | 92 | 0.0 | 1.0 | 0.00 | 0.00 | 0.00 | 58 | 1026.6 |
| 20260903200511 | 69 | 103 | 0.0 | 1.0 | 0.00 | 0.00 | 0.00 | 58 | 1026.6 |
| 20260903200018 | 69 | 125 | 0.0 | 0.0 | 0.00 | 0.00 | 0.00 | 58 | 1026.5 |
| 20260903195510 | 70 | 125 | 0.0 | 0.0 | 0.00 | 0.00 | 0.00 | 57 | 1026.5 |
| 20260903195010 | 70 | 126 | 0.0 | 1.0 | 0.00 | 0.00 | 0.00 | 57 | 1026.4 |
| 20260903194534 | 70 | 126 | 0.0 | 1.0 | 0.00 | 0.00 | 0.00 | 57 | 1026.4 |
| 20260903194011 | 70 | 125 | 0.0 | 1.0 | 0.00 | 0.00 | 0.00 | 57 | 1026.4 |
| 20260903193513 | 70 | 139 | 0.0 | 1.0 | 0.00 | 0.00 | 0.00 | 57 | 1026.5 |
| 20260903193031 | 70 | 282 | 0.0 | 1.0 | 0.00 | 0.00 | 0.00 | 57 | 1026.4 |
| 20260903192516 | 71 | 283 | 0.0 | 0.0 | 0.00 | 0.00 | 0.00 | 57 | 1026.4 |
| 20260903192015 | 71 | 283 | 0.0 | 1.0 | 0.00 | 0.00 | 0.00 | 57 | 1026.4 |
| 20260903191532 | 71 | 283 | 0.0 | 1.0 | 0.00 | 0.00 | 0.00 | 56 | 1026.3 |
| 20260903191018 | 71 | 283 | 0.0 | 1.0 | 0.00 | 0.00 | 0.00 | 56 | 1026.3 |
| 20260903190518 | 72 | 283 | 0.0 | 0.0 | 0.00 | 0.00 | 0.00 | 55 | 1026.3 |
| 20260903190014 | 72 | 283 | 0.0 | 0.0 | 0.00 | 0.00 | 0.00 | 54 | 1026.3 |
| 20260903185509 | 72 | 283 | 0.0 | 1.0 | 0.00 | 0.00 | 0.00 | 54 | 1026.4 |
| 20260903185010 | 72 | 283 | 0.0 | 1.0 | 0.00 | 0.00 | 0.00 | 54 | 1026.4 |
| 20260903184519 | 73 | 281 | 0.0 | 1.0 | 0.00 | 0.00 | 0.00 | 54 | 1026.4 |
| 20260903184017 | 73 | 282 | 0.0 | 1.0 | 0.00 | 0.00 | 0.00 | 54 | 1026.3 |
| 20260903183513 | 73 | 279 | 0.0 | 1.0 | 0.00 | 0.00 | 0.00 | 54 | 1026.3 |
| 20260903183025 | 73 | 274 | 0.0 | 1.0 | 0.00 | 0.00 | 0.00 | 56 | 1026.3 |
| 20260903182512 | 73 | 276 | 0.0 | 1.0 | 0.00 | 0.00 | 0.00 | 56 | 1026.3 |
| 20260903182016 | 74 | 276 | 0.0 | 1.0 | 0.00 | 0.00 | 0.00 | 54 | 1026.3 |
| 20260903181527 | 74 | 284 | 0.0 | 1.0 | 0.00 | 0.00 | 0.00 | 53 | 1026.3 |
| 20260903181017 | 75 | 284 | 0.0 | 1.0 | 0.00 | 0.00 | 0.00 | 52 | 1026.3 |
| 20260903180517 | 75 | 284 | 0.0 | 1.0 | 0.00 | 0.00 | 0.00 | 52 | 1026.3 |
| 20260903180037 | 76 | 284 | 0.0 | 1.0 | 0.00 | 0.00 | 0.00 | 50 | 1026.4 |
| 20260903175517 | 77 | 300 | 0.0 | 1.0 | 0.00 | 0.00 | 0.00 | 49 | 1026.4 |
| 20260903175019 | 78 | 300 | 0.0 | 1.0 | 0.00 | 0.00 | 0.00 | 49 | 1026.3 |
| 20260903174534 | 78 | 301 | 0.0 | 1.0 | 0.00 | 0.00 | 0.00 | 47 | 1026.3 |